Regional Weather Roundup
Issued by NWS

Home | Current Version | Previous Version | Graphics & Text | Print | Product List | Glossary On
Versions: 1 2 3 4 5 6 7 8 9 10 11 12 13 14 15 16 17 18 19 20 21 22 23 24 25 26 27 28 29 30 31 32 33 34 35 36 37 38 39 40 41 42 43 44 45 46 47 48 49 50
000
ASUS43 KLSX 271059
RWRMO

WEATHER SUMMARY FOR MISSOURI
NATIONAL WEATHER SERVICE SPRINGFIELD MO
600 AM CDT FRI MAR 27 2015

NOTE: "FAIR" INDICATES FEW OR NO CLOUDS BELOW 12,000 FEET WITH NO
       SIGNIFICANT WEATHER AND/OR OBSTRUCTIONS TO VISIBILITY.
       CURRENT SKY AND/OR WEATHER CONDITIONS ARE NOT AVAILABLE FOR
       CHILLICOTHE AND FARMINGTON.

MOZ001>031-035>038-043-044-053-054-271200-
...NORTHERN AND WESTERN MISSOURI...

CITY           SKY/WX    TMP DP  RH WIND       PRES   REMARKS
KANSAS CTY INT CLOUDY    32  29  88 N10       30.19R WCI  24
KANSAS C DTWN  MOCLDY    36  28  73 N8        30.19R WCI  30
LEE`S SUMMIT   CLOUDY    35  29  78 N14       30.18R WCI  26
ST JOSEPH      CLOUDY    30  25  81 N9        30.23R WCI  22
CHILLICOTHE      N/A     31  24  75 N8        30.20R WCI  23
KIRKSVILLE     CLOUDY    32  23  69 N10       30.16R WCI  24

$$
MOZ066>068-077>081-088>096-101>105-271200-
...SOUTHWEST MISSOURI...

CITY           SKY/WX    TMP DP  RH WIND       PRES   REMARKS
SPRINGFIELD    CLOUDY    39  36  89 NW7       30.08R
JOPLIN         MOCLDY    37  35  92 VRB3      30.12R

$$
MOZ032>034-039>042-045>050-055>058-069>072-271200-
...CENTRAL MISSOURI...

CITY           SKY/WX    TMP DP  RH WIND       PRES   REMARKS
COLUMBIA       LGT SNOW  33  31  92 NE12      30.14R FOG     WCI  24
JEFFERSON CITY FLURRIES  36  31  82 N6        30.15R
ROLLA          FLURRIES  35  29  78 MISG      30.08R
SEDALIA        CLOUDY    35  31  85 N12       30.16R WCI  27
OSAGE BEACH    CLOUDY    37  28  70 N8        30.11R

$$
MOZ051-052-059>065-271200-
...EAST CENTRAL MISSOURI...

CITY           SKY/WX    TMP DP  RH WIND       PRES   REMARKS
ST LOUIS INTL  FLURRIES  36  25  64 N8        30.12R WCI  30
SPIRIT OF STL  FLURRIES  34  26  72 N9        30.12S WCI  27
ST CHARLES     CLOUDY    34  22  61 N12       30.12R WCI  25

$$
MOZ072>076-082>087-097>100-106>115-271200-
...SOUTH CENTRAL AND SOUTHEAST MISSOURI...

CITY           SKY/WX    TMP DP  RH WIND       PRES   REMARKS
CAPE GIRARDEAU CLOUDY    36  32  85 N6        30.05R
FARMINGTON     CLOUDY    36  28  75 NE9       30.10R WCI  29
POPLAR BLUFF   CLOUDY    39  31  72 NW7       30.05R
WEST PLAINS    CLOUDY    38  34  85 MISG      30.06S

$$



USA.gov is the U.S. government's official web portal to all federal, state and local government web resources and services.